Current weather by "City, St" or "zip code"  
 

Current Conditions: Portland Municipal Airport, TN

Overcast


28.0 F

Last Updated on Jan 31 2023, 7:55 pm CST
Humidity: 100%
Wind Speed: N 11.5 mph
Barometer 30.28 in
Dewpoint: 28.4 F
Visibility: 10.00 mi
Precip: --
Heat Index: NA
Wind Chill: 18 F
Current conditions at:

Portland Municipal Airport, TN (K1M5)

Lat: 36.5929 Lon: 86.4769

Local Radar Image active severe weather and emergency alerts image image weather storm and storm spotter reports image weather observation monitoring service image
Local
Radar
Active
Alerts
Storm Reports Obs
Monitoring

Sign-up For Email & Text Message Weather Alert Notification Services



Advertise Here

Observation History for Portland Municipal Airport, TN


Time Wind
(mph)
Vis
(mi)
Weather Precip (in) Temperature (F) Relative
Humidity
Wind
Chill
(F)
Heat
Index
(F)
Pressure
Air Dwpt altimeter
(in)
sea level
(mb)
Rmks
7:55 pm CST N 11.5 10.00 Overcast -- 28.0 28.4 100% 18 NA 30.28 M
7:15 pm CST N 11.5 5.00 Fog/Mist -- 30.0 30.2 100% 20 NA 30.25 M
6:15 pm CST N 9.2 2.50 Fog/Mist -- 28.0 28.4 100% 19 NA 30.24 M
4:55 pm CST N 8.1 4.00 Fog/Mist -- 30.0 30.2 100% 22 NA 30.25 M
3:35 pm CST N 10.4 3.00 Fog/Mist -- 30.0 30.2 100% 21 NA 30.21 M
3:15 pm CST N 10.4 1.25 Fog/Mist -- 30.0 30.2 100% 21 NA 30.21 M
10:55 am CST N 9.2 10.00 Overcast -- 32.0 32.0 100% 24 NA 30.29 M
10:35 am CST NE 8.1 10.00 Overcast -- 32.0 32.0 100% 25 NA 30.29 M
9:35 am CST N 11.5 3.00 Fog/Mist -- 32.0 32.0 100% 23 NA 30.28 M
9:15 am CST N 10.4 3.00 Fog/Mist -- 32.0 32.0 100% 24 NA 30.28 M
4:35 am CST N 11.5 8.00 Overcast -- 32.0 32.0 100% 23 NA 30.25 M
3:35 am CST N 9.2 5.00 Fog/Mist -- 32.0 32.0 100% 24 NA 30.23 M
2:55 am CST N 10.4 5.00 Fog/Mist -- 32.0 32.0 100% 24 NA 30.22 M
2:35 am CST N 10.4 4.00 Fog/Mist -- 32.0 32.0 100% 24 NA 30.23 M
1:55 am CST N 6.9 5.00 Fog/Mist -- 32.0 32.0 100% 26 NA 30.22 M
12:15 am CST N 10.4 2.50 Fog/Mist -- 32.0 32.0 100% 24 NA 30.24 M
11:15 pm CST N 6.9 0.25 Fog -- 34.0 33.8 100% 28 NA 30.23 M
10:35 pm CST N 6.9 0.25 Fog -- 34.0 33.8 100% 28 NA 30.24 M
7:55 pm CST N 10.4 2.00 Fog/Mist -- 36.0 35.6 100% 28 NA 30.24 M

Regional Weather Observation


Portland Municipal Airport, TN (K1M5)

Overcast
28.0 F

Springfield Robertson County Airport, TN (KM91)

Fog/Mist
27.0 F

Sumner County Regional Airport, TN (KXNX)

Overcast
32.0 F

John C Tune Airport, TN (KJWN)

Unknown Precip
28.0 F

Nashville, Nashville International Airport, TN (KBNA)

Light Freezing Rain Fog/Mist
32.0 F

Lebanon Municipal Airport, TN (KM54)

Fog/Mist
32.0 F

Advertise Here


Advertise Here